Flag for Germany Weather past 2 weeks in Zeitz, Saxony-Anhalt, Germany

Now
60 °F

Drizzle. Low clouds.


Feels Like: 60 °F
Forecast: 58 / 78 °F
Wind: 2 mph from Southeast

Location: Gera-Leumnitz

Current Time: Aug 28, 2015 at 3:35:08 PM

Latest Report: Aug 28, 2015 at 3:00 PM


Visibility: 2 mi

Pressure: 30.09 "Hg

Humidity: 96%

Dew point: 59 °F

Location of ZeitzLocation

Historic Weather in Zeitz — Graph

°F

Zeitz temperature yesterday

Maximum temperature yesterday: 84 °F (at 4:00 PM)
Minimum temperature yesterday: 58 °F (at 2:00 AM)
Average temperature yesterday: 73 °F

Past Weeks' High & Low Weather Summary

 TemperatureHumidityPressure
High93 °F (Aug 14, 4:00 PM)100% (Aug 19, 7:00 AM)30.31 "Hg (Aug 19, 7:00 AM)
Low48 °F (Aug 22, 6:00 AM)30% (Aug 14, 4:00 PM)29.67 "Hg (Aug 14, 5:00 PM)
Average65 °F75%29.96 "Hg
* Reported Aug 13 2:00 PM — Aug 28 2:00 PM, Zeitz, Weather by CustomWeather, © 2015

Note: Actual official high and low records may vary slightly from our data, if they occured in-between our weather recording intervals... More about our weather records

Advertising

Zeitz weather history for previous 24 hours

 ConditionsComfort  
Time TempWeatherWind HumidityBarometerVisibility
2:00 PM
Fri, Aug 28
60 °FDrizzle. Low clouds.3 mph94%30.08 "Hg6 mi
1:00 PM59 °FLow clouds.2 mph94%30.07 "Hg9 mi
12:00 PM58 °FDrizzle. Low clouds.1 mph91%30.07 "Hg4 mi
11:00 AM58 °FLow clouds.2 mph91%30.05 "Hg15 mi
10:00 AM57 °FDrizzle. Low clouds.3 mph97%30.03 "Hg11 mi
9:00 AM57 °FRain. Low clouds.5 mph96%30.01 "Hg6 mi
8:00 AM64 °FLight rain. Overcast.3 mph94%29.94 "Hg22 mi
7:00 AM63 °FLight rain. Overcast.3 mph93%29.92 "Hg14 mi
6:00 AM62 °FLight rain. Low clouds.5 mph92%29.91 "Hg12 mi
5:00 AM62 °FDrizzle. Overcast.3 mph93%29.92 "Hg7 mi
4:00 AM62 °FLight rain. Low clouds.2 mph91%29.91 "Hg4 mi
3:00 AM63 °FLight rain. Overcast.3 mph87%29.89 "Hg12 mi
2:00 AM63 °FLight rain. Overcast.2 mph85%29.87 "Hg18 mi
11:00 PM
Thu, Aug 27
75 °FOvercast.7 mph49%29.80 "Hg43 mi
10:00 PM76 °FOvercast.7 mph47%29.78 "Hg43 mi
9:00 PM77 °FOvercast.8 mph43%29.78 "Hg43 mi
8:00 PM79 °FOvercast.8 mph42%29.78 "Hg47 mi
7:00 PM81 °FOvercast.8 mph41%29.78 "Hg47 mi
6:00 PM82 °FOvercast.8 mph39%29.79 "Hg47 mi
5:00 PM83 °FOvercast.7 mph39%29.81 "Hg47 mi
4:00 PM84 °FOvercast.8 mph37%29.83 "Hg47 mi
3:00 PM83 °FOvercast.6 mph38%29.85 "Hg47 mi
Weather by CustomWeather, © 2015

See weather overviewHow to use our weather pages